Portada
METAR-TAF:

METAR-TAF

Aeroports :

Demopolis, Alabama, Estats Units d'Amèrica

latitud: 32-27-50N, longitud: 087-57-15W, altitud: 34 m

Observació

L'informe es va fer fa 10 minuts, a les 05:15 UTC
Vent calma
Temperatura 2°C
Humitat 100%
Pressió 1023 hPa
Visibilitat: 8.0 km
Cel clar
boirina

METAR: KDYA 050515Z AUTO 00000KT 5SM BR CLR 02/02 A3021 RMK AO2 T00200019

Hora: 23:25 (05:25 UTC)


TAF: manca

Observacions i pronòstics meteorològics de més de 4000 aeroports (METAR i TAF).

Les estacions disponibles són els punts grocs i vermells al mapa.

Posi el ratolí al punt desitjat per veure el nom de l'estació.

Feu clic per veure les observacions i els pronòstics meteorològics.

Per canviar el mapa: feu clic els botons verds amb una creu de color negre per apropar; al botó verd amb un guió per allunyar la imatge; o en les fletxes verdes per a mapes adjacents.


METAR-TAF: